| time (UTC) | temp C | wind direction | speed KPH | gust KPH | rain 1hr cm | rain 24hr cm | rain mn cm | humidity % | barometer mb |
| 20260905060719 | 19 | 336 | 0.0 | 1.6 | 0.00 | 0.00 | 0.00 | 79 | 1012.1 |
| 20260905060120 | 19 | 349 | 1.6 | 1.6 | 0.00 | 0.00 | 0.00 | 79 | 1011.8 |
| 20260905054923 | 19 | 34 | 4.8 | 4.8 | 0.00 | 0.00 | 0.00 | 79 | 1012.1 |
| 20260905054318 | 19 | 341 | 0.0 | 0.0 | 0.00 | 0.00 | 0.00 | 79 | 1011.8 |
| 20260905053721 | 20 | 322 | 1.6 | 1.6 | 0.00 | 0.00 | 0.00 | 80 | 1012.1 |
| 20260905051920 | 20 | 12 | 3.2 | 3.2 | 0.00 | 0.00 | 0.00 | 82 | 1012.1 |
| 20260905051320 | 20 | 0 | 3.2 | 3.2 | 0.00 | 0.00 | 0.00 | 82 | 1012.1 |
| 20260905050122 | 20 | 336 | 1.6 | 1.6 | 0.00 | 0.00 | 0.00 | 83 | 1012.1 |
| 20260905045519 | 20 | 9 | 3.2 | 3.2 | 0.00 | 0.00 | 0.00 | 84 | 1011.8 |
| 20260905044918 | 19 | 335 | 1.6 | 1.6 | 0.00 | 0.00 | 0.00 | 84 | 1011.8 |
| 20260905043122 | 20 | 299 | 0.0 | 1.6 | 0.00 | 0.00 | 0.00 | 86 | 1011.8 |
| 20260905042521 | 20 | 299 | 0.0 | 1.6 | 0.00 | 0.00 | 0.00 | 86 | 1011.8 |
| 20260905041918 | 20 | 299 | 0.0 | 0.0 | 0.00 | 0.00 | 0.00 | 86 | 1011.8 |
| 20260905041321 | 20 | 295 | 3.2 | 3.2 | 0.00 | 0.00 | 0.00 | 86 | 1011.4 |
| 20260905040119 | 20 | 228 | 0.0 | 0.0 | 0.00 | 0.00 | 0.00 | 86 | 1011.4 |
| 20260905035516 | 20 | 227 | 3.2 | 3.2 | 0.00 | 0.00 | 0.00 | 86 | 1011.8 |
| 20260905034922 | 20 | 275 | 1.6 | 1.6 | 0.00 | 0.00 | 0.00 | 86 | 1011.4 |
| 20260905034318 | 20 | 285 | 1.6 | 3.2 | 0.00 | 0.00 | 0.00 | 85 | 1011.4 |
| 20260905033716 | 20 | 244 | 1.6 | 1.6 | 0.00 | 0.00 | 0.00 | 85 | 1011.1 |
| 20260905033121 | 20 | 261 | 0.0 | 1.6 | 0.00 | 0.00 | 0.00 | 85 | 1011.4 |
| 20260905032518 | 20 | 266 | 0.0 | 1.6 | 0.00 | 0.00 | 0.00 | 85 | 1011.1 |
| 20260905031916 | 20 | 226 | 1.6 | 3.2 | 0.00 | 0.00 | 0.00 | 84 | 1011.1 |
| 20260905031322 | 20 | 242 | 1.6 | 3.2 | 0.00 | 0.00 | 0.00 | 84 | 1011.1 |
| 20260905030718 | 20 | 258 | 1.6 | 1.6 | 0.00 | 0.00 | 0.00 | 83 | 1010.7 |
| 20260905030122 | 20 | 248 | 3.2 | 4.8 | 0.00 | 0.00 | 0.00 | 83 | 1010.7 |
| 20260905024946 | 20 | 257 | 3.2 | 3.2 | 0.00 | 0.00 | 0.00 | 83 | 1010.7 |
| 20260905024318 | 20 | 247 | 6.4 | 9.7 | 0.00 | 0.00 | 0.00 | 83 | 1010.7 |
| 20260905023722 | 21 | 267 | 6.4 | 6.4 | 0.00 | 0.00 | 0.00 | 82 | 1010.7 |
| 20260905023119 | 21 | 260 | 6.4 | 6.4 | 0.00 | 0.00 | 0.00 | 82 | 1010.7 |
| 20260905022523 | 21 | 253 | 6.4 | 6.4 | 0.00 | 0.00 | 0.00 | 81 | 1010.7 |
| 20260905021920 | 21 | 255 | 4.8 | 4.8 | 0.00 | 0.00 | 0.00 | 80 | 1010.7 |
| 20260905021318 | 21 | 282 | 6.4 | 9.7 | 0.00 | 0.00 | 0.00 | 79 | 1011.1 |
| 20260905020719 | 21 | 274 | 6.4 | 9.7 | 0.00 | 0.00 | 0.00 | 78 | 1011.1 |
| 20260905020122 | 21 | 286 | 6.4 | 9.7 | 0.00 | 0.00 | 0.00 | 78 | 1011.1 |
| 20260905015144 | 21 | 257 | 4.8 | 16.1 | 0.00 | 0.00 | 0.00 | 77 | 1011.1 |
| 20260905014603 | 22 | 242 | 12.9 | 16.1 | 0.00 | 0.00 | 0.00 | 76 | 1011.1 |
| 20260905014104 | 21 | 259 | 3.2 | 12.9 | 0.00 | 0.00 | 0.00 | 77 | 1011.1 |
| 20260905013604 | 21 | 289 | 6.4 | 12.9 | 0.00 | 0.00 | 0.00 | 76 | 1011.1 |
| 20260905013103 | 22 | 259 | 4.8 | 14.5 | 0.00 | 0.00 | 0.00 | 76 | 1011.1 |
| 20260905012035 | 22 | 262 | 6.4 | 14.5 | 0.00 | 0.00 | 0.00 | 74 | 1011.1 |
| 20260905011003 | 22 | 205 | 9.7 | 17.7 | 0.00 | 0.00 | 0.00 | 75 | 1011.4 |
| 20260905010503 | 22 | 223 | 8.0 | 17.7 | 0.00 | 0.00 | 0.00 | 74 | 1011.4 |
| 20260905010003 | 22 | 295 | 3.2 | 17.7 | 0.00 | 0.00 | 0.00 | 74 | 1011.4 |
| 20260905004949 | 22 | 44 | 6.4 | 16.1 | 0.00 | 0.00 | 0.00 | 73 | 1011.4 |
| 20260905004449 | 22 | 237 | 8.0 | 16.1 | 0.00 | 0.00 | 0.00 | 74 | 1011.4 |
| 20260905003403 | 23 | 288 | 11.3 | 16.1 | 0.00 | 0.00 | 0.00 | 72 | 1011.4 |
| 20260905002903 | 22 | 239 | 6.4 | 17.7 | 0.00 | 0.00 | 0.00 | 73 | 1011.4 |
| 20260905002403 | 23 | 219 | 14.5 | 17.7 | 0.00 | 0.00 | 0.00 | 72 | 1011.4 |
| 20260905001903 | 22 | 244 | 6.4 | 20.9 | 0.00 | 0.00 | 0.00 | 73 | 1011.4 |
| 20260905001349 | 23 | 236 | 17.7 | 20.9 | 0.00 | 0.00 | 0.00 | 71 | 1011.4 |
| 20260905000849 | 23 | 261 | 8.0 | 17.7 | 0.00 | 0.00 | 0.00 | 72 | 1011.1 |
| 20260905000335 | 23 | 212 | 8.0 | 17.7 | 0.00 | 0.00 | 0.00 | 72 | 1011.1 |
| 20260904235823 | 23 | 225 | 14.5 | 17.7 | 0.00 | 0.00 | 0.00 | 71 | 1011.4 |
| 20260904235309 | 23 | 261 | 14.5 | 17.7 | 0.00 | 0.00 | 0.00 | 71 | 1011.4 |
| 20260904234756 | 23 | 260 | 12.9 | 22.5 | 0.00 | 0.00 | 0.00 | 71 | 1011.4 |
| 20260904234235 | 22 | 248 | 12.9 | 22.5 | 0.00 | 0.00 | 0.00 | 72 | 1011.4 |
| 20260904233730 | 22 | 182 | 8.0 | 20.9 | 0.00 | 0.00 | 0.00 | 72 | 1011.4 |
| 20260904233229 | 22 | 222 | 12.9 | 25.7 | 0.00 | 0.00 | 0.00 | 72 | 1011.4 |
| 20260904232703 | 23 | 232 | 20.9 | 25.7 | 0.00 | 0.00 | 0.00 | 70 | 1011.4 |
| 20260904232203 | 23 | 257 | 14.5 | 22.5 | 0.00 | 0.00 | 0.00 | 70 | 1011.4 |
| 20260904231705 | 23 | 230 | 12.9 | 17.7 | 0.00 | 0.00 | 0.00 | 69 | 1011.4 |
| 20260904231203 | 23 | 261 | 9.7 | 24.1 | 0.00 | 0.00 | 0.00 | 70 | 1011.4 |
| 20260904230703 | 23 | 241 | 8.0 | 24.1 | 0.00 | 0.00 | 0.00 | 70 | 1011.4 |
| 20260904230203 | 23 | 217 | 9.7 | 20.9 | 0.00 | 0.00 | 0.00 | 69 | 1011.4 |
| 20260904225155 | 23 | 225 | 9.7 | 20.9 | 0.00 | 0.00 | 0.00 | 70 | 1011.4 |
| 20260904224647 | 23 | 233 | 3.2 | 20.9 | 0.00 | 0.00 | 0.00 | 70 | 1011.8 |
| 20260904224148 | 23 | 273 | 12.9 | 17.7 | 0.00 | 0.00 | 0.00 | 70 | 1011.4 |
| 20260904223635 | 23 | 219 | 11.3 | 20.9 | 0.00 | 0.00 | 0.00 | 69 | 1011.8 |
| 20260904222558 | 23 | 221 | 14.5 | 20.9 | 0.00 | 0.00 | 0.00 | 67 | 1011.8 |
| 20260904222056 | 23 | 236 | 16.1 | 20.9 | 0.00 | 0.00 | 0.00 | 67 | 1011.8 |
| 20260904221048 | 23 | 215 | 9.7 | 20.9 | 0.00 | 0.00 | 0.00 | 69 | 1011.8 |
| 20260904220548 | 23 | 200 | 12.9 | 22.5 | 0.00 | 0.00 | 0.00 | 69 | 1011.8 |
| 20260904220034 | 23 | 256 | 11.3 | 22.5 | 0.00 | 0.00 | 0.00 | 68 | 1011.8 |
| 20260904215529 | 23 | 241 | 8.0 | 20.9 | 0.00 | 0.00 | 0.00 | 70 | 1011.8 |
| 20260904214957 | 23 | 201 | 14.5 | 20.9 | 0.00 | 0.00 | 0.00 | 70 | 1011.8 |
| 20260904214450 | 23 | 290 | 11.3 | 20.9 | 0.00 | 0.00 | 0.00 | 68 | 1011.8 |
| 20260904213936 | 24 | 221 | 14.5 | 20.9 | 0.00 | 0.00 | 0.00 | 68 | 1011.8 |
| 20260904213403 | 23 | 242 | 11.3 | 24.1 | 0.00 | 0.00 | 0.00 | 69 | 1011.8 |
| 20260904212903 | 23 | 223 | 11.3 | 24.1 | 0.00 | 0.00 | 0.00 | 69 | 1011.8 |
| 20260904211835 | 23 | 224 | 16.1 | 20.9 | 0.00 | 0.00 | 0.00 | 68 | 1012.1 |
| 20260904211304 | 23 | 222 | 8.0 | 17.7 | 0.00 | 0.00 | 0.00 | 68 | 1011.8 |
| 20260904210749 | 23 | 257 | 12.9 | 20.9 | 0.00 | 0.00 | 0.00 | 69 | 1012.1 |
| 20260904205733 | 23 | 236 | 9.7 | 17.7 | 0.00 | 0.00 | 0.00 | 67 | 1011.8 |
| 20260904205234 | 23 | 227 | 16.1 | 20.9 | 0.00 | 0.00 | 0.00 | 67 | 1011.8 |
| 20260904204704 | 23 | 176 | 9.7 | 20.9 | 0.00 | 0.00 | 0.00 | 67 | 1012.1 |
| 20260904204204 | 24 | 201 | 9.7 | 16.1 | 0.00 | 0.00 | 0.00 | 65 | 1011.8 |
| 20260904203705 | 24 | 212 | 9.7 | 17.7 | 0.00 | 0.00 | 0.00 | 65 | 1012.1 |
| 20260904202703 | 23 | 210 | 9.7 | 20.9 | 0.00 | 0.00 | 0.00 | 66 | 1012.1 |
| 20260904202154 | 23 | 185 | 3.2 | 20.9 | 0.00 | 0.00 | 0.00 | 67 | 1012.1 |
| 20260904201635 | 23 | 207 | 14.5 | 22.5 | 0.00 | 0.00 | 0.00 | 66 | 1012.1 |
| 20260904201104 | 23 | 221 | 20.9 | 22.5 | 0.00 | 0.00 | 0.00 | 64 | 1012.1 |
| 20260904200556 | 24 | 258 | 14.5 | 17.7 | 0.00 | 0.00 | 0.00 | 63 | 1012.1 |
| 20260904200056 | 24 | 208 | 12.9 | 17.7 | 0.00 | 0.00 | 0.00 | 62 | 1012.1 |
| 20260904195556 | 24 | 289 | 8.0 | 20.9 | 0.00 | 0.00 | 0.00 | 62 | 1012.1 |
| 20260904195049 | 25 | 234 | 16.1 | 20.9 | 0.00 | 0.00 | 0.00 | 61 | 1012.1 |
| 20260904194535 | 24 | 196 | 6.4 | 16.1 | 0.00 | 0.00 | 0.00 | 62 | 1012.4 |
| 20260904194036 | 23 | 216 | 12.9 | 16.1 | 0.00 | 0.00 | 0.00 | 62 | 1012.4 |
| 20260904193504 | 24 | 221 | 8.0 | 16.1 | 0.00 | 0.00 | 0.00 | 62 | 1012.4 |
| 20260904193003 | 23 | 225 | 9.7 | 17.7 | 0.00 | 0.00 | 0.00 | 64 | 1012.4 |
| 20260904192003 | 23 | 185 | 9.7 | 17.7 | 0.00 | 0.00 | 0.00 | 62 | 1012.4 |
| 20260904191450 | 23 | 206 | 14.5 | 17.7 | 0.00 | 0.00 | 0.00 | 63 | 1012.8 |
| 20260904190948 | 24 | 180 | 11.3 | 14.5 | 0.00 | 0.00 | 0.00 | 62 | 1012.8 |
| 20260904190435 | 24 | 270 | 3.2 | 14.5 | 0.00 | 0.00 | 0.00 | 62 | 1012.8 |
| 20260904185904 | 23 | 195 | 6.4 | 14.5 | 0.00 | 0.00 | 0.00 | 62 | 1012.8 |
| 20260904184904 | 23 | 217 | 6.4 | 12.9 | 0.00 | 0.00 | 0.00 | 63 | 1012.8 |
| 20260904184349 | 24 | 210 | 6.4 | 14.5 | 0.00 | 0.00 | 0.00 | 62 | 1012.8 |
| 20260904183830 | 23 | 150 | 3.2 | 14.5 | 0.00 | 0.00 | 0.00 | 64 | 1012.8 |
| 20260904183257 | 23 | 225 | 6.4 | 11.3 | 0.00 | 0.00 | 0.00 | 65 | 1012.8 |
| 20260904182229 | 23 | 288 | 6.4 | 12.9 | 0.00 | 0.00 | 0.00 | 66 | 1013.1 |
| 20260904181656 | 23 | 207 | 8.0 | 12.9 | 0.00 | 0.00 | 0.00 | 66 | 1013.1 |
| 20260904181155 | 22 | 307 | 3.2 | 12.9 | 0.00 | 0.00 | 0.00 | 68 | 1012.8 |
| 20260904180637 | 22 | 238 | 6.4 | 12.9 | 0.00 | 0.00 | 0.00 | 68 | 1013.1 |
| 20260904175636 | 22 | 200 | 9.7 | 12.9 | 0.00 | 0.00 | 0.00 | 69 | 1013.1 |
| 20260904175135 | 22 | 210 | 6.4 | 12.9 | 0.00 | 0.00 | 0.00 | 70 | 1013.1 |
| 20260904174103 | 23 | 161 | 6.4 | 9.7 | 0.00 | 0.00 | 0.00 | 67 | 1013.1 |
| 20260904173548 | 23 | 218 | 4.8 | 11.3 | 0.00 | 0.00 | 0.00 | 67 | 1013.1 |
| 20260904172002 | 23 | 279 | 8.0 | 14.5 | 0.00 | 0.00 | 0.00 | 68 | 1013.1 |
| 20260904171503 | 23 | 312 | 1.6 | 4.8 | 0.00 | 0.00 | 0.00 | 62 | 1012.8 |
| 20260904170936 | 23 | 192 | 3.2 | 9.7 | 0.00 | 0.00 | 0.00 | 63 | 1012.8 |
| 20260904170438 | 22 | 61 | 1.6 | 9.7 | 0.00 | 0.00 | 0.00 | 66 | 1012.8 |
| 20260904165935 | 22 | 180 | 3.2 | 9.7 | 0.00 | 0.00 | 0.00 | 66 | 1012.8 |
| 20260904165403 | 22 | 80 | 4.8 | 9.7 | 0.00 | 0.00 | 0.00 | 65 | 1012.8 |
| 20260904164904 | 23 | 137 | 6.4 | 6.4 | 0.00 | 0.00 | 0.00 | 64 | 1012.4 |
| 20260904164404 | 23 | 199 | 1.6 | 4.8 | 0.00 | 0.00 | 0.00 | 65 | 1012.4 |
| 20260904163335 | 22 | 247 | 3.2 | 6.4 | 0.00 | 0.00 | 0.00 | 67 | 1012.8 |
| 20260904162836 | 22 | 262 | 6.4 | 6.4 | 0.00 | 0.00 | 0.00 | 67 | 1012.4 |
| 20260904162336 | 22 | 180 | 4.8 | 6.4 | 0.00 | 0.00 | 0.00 | 67 | 1012.4 |
| 20260904161803 | 22 | 121 | 6.4 | 6.4 | 0.00 | 0.00 | 0.00 | 69 | 1012.4 |
| 20260904161305 | 21 | 248 | 1.6 | 4.8 | 0.00 | 0.00 | 0.00 | 74 | 1012.4 |
| 20260904160258 | 21 | 60 | 3.2 | 4.8 | 0.00 | 0.00 | 0.00 | 74 | 1012.4 |
| 20260904155757 | 21 | 266 | 1.6 | 6.4 | 0.00 | 0.00 | 0.00 | 77 | 1012.4 |
| 20260904155257 | 20 | 222 | 1.6 | 6.4 | 0.00 | 0.00 | 0.00 | 76 | 1012.4 |
| 20260904154256 | 20 | 289 | 1.6 | 6.4 | 0.00 | 0.00 | 0.00 | 77 | 1012.4 |
| 20260904153756 | 20 | 137 | 3.2 | 6.4 | 0.00 | 0.00 | 0.00 | 77 | 1012.4 |
| 20260904153240 | 20 | 167 | 3.2 | 6.4 | 0.00 | 0.00 | 0.00 | 77 | 1012.4 |
| 20260904152728 | 20 | 158 | 4.8 | 6.4 | 0.00 | 0.00 | 0.00 | 76 | 1012.4 |
| 20260904152204 | 20 | 7 | 1.6 | 6.4 | 0.00 | 0.00 | 0.00 | 78 | 1012.4 |
| 20260904151703 | 20 | 35 | 6.4 | 6.4 | 0.00 | 0.00 | 0.00 | 77 | 1012.4 |
| 20260904151203 | 20 | 35 | 3.2 | 4.8 | 0.00 | 0.00 | 0.00 | 77 | 1012.4 |
| 20260904145702 | 21 | 9 | 0.0 | 4.8 | 0.00 | 0.00 | 0.00 | 77 | 1012.4 |
| 20260904145201 | 20 | 346 | 0.0 | 4.8 | 0.00 | 0.00 | 0.00 | 79 | 1012.1 |
| 20260904144701 | 20 | 1 | 1.6 | 3.2 | 0.00 | 0.00 | 0.00 | 81 | 1012.1 |
| 20260904144157 | 19 | 21 | 1.6 | 4.8 | 0.00 | 0.00 | 0.00 | 83 | 1012.1 |
| 20260904143657 | 18 | 25 | 1.6 | 4.8 | 0.00 | 0.00 | 0.00 | 83 | 1012.1 |
| 20260904143157 | 18 | 341 | 1.6 | 1.6 | 0.00 | 0.00 | 0.00 | 84 | 1012.1 |
| 20260904142649 | 18 | 330 | 1.6 | 1.6 | 0.00 | 0.00 | 0.00 | 84 | 1011.8 |
| 20260904142136 | 18 | 331 | 1.6 | 3.2 | 0.00 | 0.00 | 0.00 | 84 | 1011.8 |
| 20260904141604 | 18 | 330 | 1.6 | 3.2 | 0.00 | 0.00 | 0.00 | 84 | 1011.8 |
| 20260904141057 | 18 | 347 | 1.6 | 3.2 | 0.00 | 0.00 | 0.00 | 85 | 1011.8 |
| 20260904140557 | 18 | 359 | 3.2 | 3.2 | 0.00 | 0.00 | 0.00 | 85 | 1011.8 |
| 20260904135536 | 18 | 8 | 3.2 | 3.2 | 0.00 | 0.00 | 0.00 | 85 | 1011.8 |
| 20260904135029 | 18 | 356 | 1.6 | 4.8 | 0.00 | 0.00 | 0.00 | 85 | 1011.8 |
| 20260904134529 | 18 | 343 | 1.6 | 3.2 | 0.00 | 0.00 | 0.00 | 85 | 1011.8 |
| 20260904133957 | 18 | 334 | 0.0 | 1.6 | 0.00 | 0.00 | 0.00 | 85 | 1011.4 |
| 20260904133447 | 18 | 331 | 0.0 | 3.2 | 0.00 | 0.00 | 0.00 | 85 | 1011.4 |
| 20260904132930 | 18 | 341 | 0.0 | 3.2 | 0.00 | 0.00 | 0.00 | 85 | 1011.4 |
| 20260904131838 | 18 | 352 | 1.6 | 3.2 | 0.00 | 0.00 | 0.00 | 85 | 1011.4 |
| 20260904130837 | 18 | 347 | 1.6 | 3.2 | 0.00 | 0.00 | 0.00 | 85 | 1011.4 |
| 20260904130329 | 18 | 10 | 3.2 | 3.2 | 0.00 | 0.00 | 0.00 | 84 | 1011.4 |
| 20260904125829 | 18 | 8 | 1.6 | 3.2 | 0.00 | 0.00 | 0.00 | 84 | 1011.4 |
| 20260904125257 | 18 | 346 | 0.0 | 3.2 | 0.00 | 0.00 | 0.00 | 84 | 1011.4 |
| 20260904124758 | 18 | 340 | 1.6 | 3.2 | 0.00 | 0.00 | 0.00 | 84 | 1011.4 |
| 20260904124237 | 18 | 1 | 1.6 | 3.2 | 0.00 | 0.00 | 0.00 | 85 | 1011.4 |
| 20260904123236 | 18 | 9 | 1.6 | 3.2 | 0.00 | 0.00 | 0.00 | 85 | 1011.4 |
| 20260904122203 | 18 | 346 | 1.6 | 1.6 | 0.00 | 0.00 | 0.00 | 86 | 1011.1 |
| 20260904121703 | 18 | 346 | 0.0 | 1.6 | 0.00 | 0.00 | 0.00 | 85 | 1011.1 |
| 20260904121150 | 18 | 346 | 1.6 | 1.6 | 0.00 | 0.00 | 0.00 | 85 | 1011.1 |
| 20260904120636 | 18 | 346 | 1.6 | 1.6 | 0.00 | 0.00 | 0.00 | 86 | 1011.4 |
| 20260904120129 | 18 | 346 | 1.6 | 1.6 | 0.00 | 0.00 | 0.00 | 86 | 1011.1 |
| 20260904115558 | 18 | 346 | 1.6 | 1.6 | 0.00 | 0.00 | 0.00 | 86 | 1011.1 |
| 20260904114557 | 18 | 345 | 0.0 | 3.2 | 0.00 | 0.00 | 0.00 | 86 | 1011.4 |
| 20260904114048 | 17 | 343 | 0.0 | 3.2 | 0.00 | 0.00 | 0.00 | 86 | 1011.1 |
| 20260904113548 | 17 | 338 | 1.6 | 3.2 | 0.00 | 0.00 | 0.00 | 87 | 1011.4 |
| 20260904113036 | 17 | 337 | 0.0 | 3.2 | 0.00 | 0.00 | 0.00 | 86 | 1011.1 |
| 20260904112504 | 17 | 343 | 1.6 | 3.2 | 0.00 | 0.00 | 0.00 | 87 | 1011.1 |
| 20260904112004 | 17 | 345 | 0.0 | 3.2 | 0.00 | 0.00 | 0.00 | 87 | 1011.1 |
| 20260904111504 | 17 | 353 | 1.6 | 3.2 | 0.00 | 0.00 | 0.00 | 87 | 1011.1 |
| 20260904110956 | 17 | 350 | 1.6 | 3.2 | 0.00 | 0.00 | 0.00 | 86 | 1011.1 |
| 20260904110437 | 17 | 346 | 1.6 | 3.2 | 0.00 | 0.00 | 0.00 | 86 | 1011.4 |
| 20260904105929 | 17 | 347 | 1.6 | 3.2 | 0.00 | 0.00 | 0.00 | 86 | 1011.4 |
| 20260904105429 | 17 | 346 | 1.6 | 3.2 | 0.00 | 0.00 | 0.00 | 86 | 1011.4 |
| 20260904104909 | 17 | 349 | 0.0 | 3.2 | 0.00 | 0.00 | 0.00 | 86 | 1011.4 |
| 20260904104402 | 17 | 347 | 1.6 | 3.2 | 0.00 | 0.00 | 0.00 | 86 | 1011.4 |
| 20260904103902 | 17 | 348 | 0.0 | 3.2 | 0.00 | 0.00 | 0.00 | 86 | 1011.1 |
| 20260904102847 | 17 | 347 | 1.6 | 1.6 | 0.00 | 0.00 | 0.00 | 86 | 1011.1 |
| 20260904102348 | 17 | 347 | 1.6 | 1.6 | 0.00 | 0.00 | 0.00 | 86 | 1011.1 |
| 20260904101836 | 17 | 347 | 0.0 | 3.2 | 0.00 | 0.00 | 0.00 | 86 | 1011.1 |
| 20260904101329 | 17 | 6 | 1.6 | 3.2 | 0.00 | 0.00 | 0.00 | 86 | 1011.1 |
| 20260904100758 | 17 | 324 | 1.6 | 3.2 | 0.00 | 0.00 | 0.00 | 86 | 1011.1 |
| 20260904100250 | 17 | 335 | 0.0 | 3.2 | 0.00 | 0.00 | 0.00 | 86 | 1011.1 |
| 20260904095736 | 17 | 330 | 1.6 | 1.6 | 0.00 | 0.00 | 0.00 | 86 | 1011.1 |
| 20260904095203 | 17 | 331 | 1.6 | 1.6 | 0.00 | 0.00 | 0.00 | 86 | 1011.1 |
| 20260904094703 | 17 | 334 | 1.6 | 1.6 | 0.00 | 0.00 | 0.00 | 86 | 1011.1 |
| 20260904094204 | 17 | 326 | 0.0 | 0.0 | 0.00 | 0.00 | 0.00 | 86 | 1011.1 |
| 20260904093704 | 17 | 326 | 0.0 | 1.6 | 0.00 | 0.00 | 0.00 | 86 | 1011.1 |
| 20260904093158 | 17 | 326 | 0.0 | 1.6 | 0.00 | 0.00 | 0.00 | 86 | 1011.1 |
| 20260904092657 | 17 | 326 | 1.6 | 3.2 | 0.00 | 0.00 | 0.00 | 86 | 1011.1 |
| 20260904091647 | 17 | 335 | 0.0 | 3.2 | 0.00 | 0.00 | 0.00 | 85 | 1011.1 |
| 20260904090604 | 17 | 335 | 0.0 | 1.6 | 0.00 | 0.00 | 0.00 | 85 | 1011.1 |
| 20260904090104 | 17 | 335 | 1.6 | 1.6 | 0.00 | 0.00 | 0.00 | 85 | 1011.1 |
| 20260904085550 | 17 | 335 | 1.6 | 1.6 | 0.00 | 0.00 | 0.00 | 85 | 1011.1 |
| 20260904085049 | 17 | 333 | 0.0 | 1.6 | 0.00 | 0.00 | 0.00 | 85 | 1011.1 |
| 20260904084035 | 17 | 334 | 0.0 | 1.6 | 0.00 | 0.00 | 0.00 | 85 | 1011.4 |
| 20260904083503 | 17 | 333 | 0.0 | 1.6 | 0.00 | 0.00 | 0.00 | 85 | 1011.1 |
| 20260904081950 | 17 | 332 | 1.6 | 1.6 | 0.00 | 0.00 | 0.00 | 84 | 1011.1 |
| 20260904081435 | 17 | 328 | 0.0 | 3.2 | 0.00 | 0.00 | 0.00 | 84 | 1011.1 |
| 20260904080411 | 17 | 326 | 1.6 | 3.2 | 0.00 | 0.00 | 0.00 | 83 | 1011.1 |
| 20260904075904 | 17 | 317 | 0.0 | 3.2 | 0.00 | 0.00 | 0.00 | 83 | 1011.4 |
| 20260904075404 | 17 | 339 | 1.6 | 3.2 | 0.00 | 0.00 | 0.00 | 83 | 1011.4 |
| 20260904074903 | 17 | 8 | 1.6 | 3.2 | 0.00 | 0.00 | 0.00 | 83 | 1011.4 |
| 20260904074358 | 17 | 323 | 1.6 | 1.6 | 0.00 | 0.00 | 0.00 | 83 | 1011.4 |
| 20260904073835 | 17 | 325 | 0.0 | 1.6 | 0.00 | 0.00 | 0.00 | 83 | 1011.4 |
| 20260904073329 | 17 | 326 | 0.0 | 1.6 | 0.00 | 0.00 | 0.00 | 83 | 1011.4 |
| 20260904072828 | 17 | 322 | 1.6 | 3.2 | 0.00 | 0.00 | 0.00 | 83 | 1011.4 |
| 20260904071829 | 17 | 328 | 1.6 | 3.2 | 0.00 | 0.00 | 0.00 | 83 | 1011.4 |
| 20260904071304 | 18 | 327 | 1.6 | 3.2 | 0.00 | 0.00 | 0.00 | 83 | 1011.1 |
| 20260904070758 | 18 | 326 | 1.6 | 3.2 | 0.00 | 0.00 | 0.00 | 83 | 1011.1 |
| 20260904070256 | 18 | 327 | 1.6 | 3.2 | 0.00 | 0.00 | 0.00 | 83 | 1011.1 |
| 20260904065749 | 18 | 330 | 1.6 | 3.2 | 0.00 | 0.00 | 0.00 | 83 | 1011.1 |
| 20260904065241 | 18 | 332 | 1.6 | 3.2 | 0.00 | 0.00 | 0.00 | 82 | 1011.1 |
| 20260904064736 | 18 | 333 | 0.0 | 1.6 | 0.00 | 0.00 | 0.00 | 82 | 1011.1 |
| 20260904064229 | 18 | 333 | 1.6 | 3.2 | 0.00 | 0.00 | 0.00 | 82 | 1011.4 |
| 20260904063704 | 18 | 333 | 3.2 | 3.2 | 0.00 | 0.00 | 0.00 | 82 | 1011.1 |
| 20260904062636 | 18 | 326 | 0.0 | 4.8 | 0.00 | 0.00 | 0.00 | 82 | 1011.1 |